Fayetteville, AR

12:44 AM CDT on May 30, 2017 (GMT -0500)
Drake

Weather History for KFYV - November, 2013

Change the Weather History Date:

Thursday, November 28, 2013

  Actual Average Record
Temperature  
Mean Temperature 35 °F 42 °F  
Max Temperature 53 °F 53 °F 77 °F (1949)
Min Temperature 16 °F 31 °F 7 °F (1976)
Degree Days  
Heating Degree Days 30 23  
Month to date heating degree days 568 482  
Since 1 July heating degree days 838 782  
Moisture  
Dew Point 20 °F    
Average Humidity 59    
Maximum Humidity 85    
Minimum Humidity 33    
Precipitation  
Precipitation 0.00 in 0.13 in 0.66 in (1948)
Month to date precipitation 2.24 3.96  
Year to date precipitation 42.53 45.00  
Sea Level Pressure  
Sea Level Pressure 30.39 in    
Wind  
Wind Speed 5 mph (SW)    
Max Wind Speed 15 mph    
Max Gust Speed 33 mph    
Visibility 10 miles    
Events      
T = Trace of Precipitation, MM = Missing Value Source: NWS Daily Summary

Daily Weather History Graph

Daily Weather History Graph

Search for Another Location

Airport or City:

Trip Planner

Search our weather history database for the weather conditions in past years. The results will help you decide how hot, cold, wet, or windy it might be!

Date:

Astronomy

Nov. 28, 2013 Rise Set
Actual Time 7:06 AM CST 5:03 PM CST
Civil Twilight 6:38 AM CST 5:31 PM CST
Nautical Twilight 6:06 AM CST 6:02 PM CST
Astronomical Twilight 5:35 AM CST 6:33 PM CST
Moon 2:17 AM CST (11/28) 2:05 PM CST (11/28)
Length of Visible Light 10h 52m
Length of Day
9h 56m
Waning Crescent, 22% of the Moon is Illuminated
Nov 28
Waning Crescent
Dec 2
New
Dec 9
First Quarter
Dec 17
Full
Dec 25
Last Quarter

Hourly Weather History & Observations

Time (CST) Temp. Windchill Dew Point Humidity Pressure Visibility Wind Dir Wind Speed Gust Speed Precip Events Conditions
12:53 AM 17.1 °F - 12.9 °F 84% 30.36 in 10.0 mi Calm Calm - N/A   Clear
1:53 AM 18.0 °F - 12.9 °F 81% 30.35 in 10.0 mi Calm Calm - N/A   Clear
2:53 AM 18.0 °F - 12.9 °F 81% 30.35 in 10.0 mi Calm Calm - N/A   Clear
3:53 AM 24.1 °F 15.2 °F 15.1 °F 69% 30.32 in 10.0 mi SSW 8.1 mph - N/A   Clear
4:53 AM 25.0 °F 16.3 °F 14.0 °F 63% 30.34 in 10.0 mi SSW 8.1 mph - N/A   Clear
5:53 AM 26.1 °F 19.4 °F 14.0 °F 60% 30.36 in 10.0 mi SW 5.8 mph - N/A   Clear
6:53 AM 26.1 °F 19.4 °F 14.0 °F 60% 30.37 in 10.0 mi SSW 5.8 mph - N/A   Clear
7:53 AM 30.0 °F 25.2 °F 18.0 °F 61% 30.37 in 10.0 mi South 4.6 mph - N/A   Clear
8:53 AM 37.9 °F 32.7 °F 19.9 °F 48% 30.38 in 10.0 mi SSW 6.9 mph - N/A   Clear
9:53 AM 42.1 °F 36.6 °F 16.0 °F 35% 30.39 in 10.0 mi SSW 9.2 mph - N/A   Clear
10:53 AM 44.1 °F 38.1 °F 18.0 °F 35% 30.39 in 10.0 mi SW 11.5 mph 16.1 mph N/A   Clear
11:53 AM 48.0 °F - 21.0 °F 34% 30.37 in 10.0 mi SSW 15.0 mph 18.4 mph N/A   Clear
12:53 PM 50.0 °F - 23.0 °F 35% 30.35 in 10.0 mi SSW 9.2 mph - N/A   Clear
1:53 PM 53.1 °F - 26.1 °F 35% 30.34 in 10.0 mi SW 9.2 mph - N/A   Clear
2:53 PM 51.1 °F - 26.1 °F 38% 30.34 in 10.0 mi WSW 10.4 mph - N/A   Clear
3:53 PM 48.9 °F - 26.1 °F 41% 30.35 in 10.0 mi WSW 8.1 mph - N/A   Clear
4:53 PM 44.1 °F 42.5 °F 28.0 °F 53% 30.37 in 10.0 mi WNW 3.5 mph - N/A   Clear
5:53 PM 39.0 °F 36.8 °F 25.0 °F 57% 30.40 in 10.0 mi SSW 3.5 mph - N/A   Clear
6:53 PM 34.0 °F - 25.0 °F 70% 30.43 in 10.0 mi Calm Calm - N/A   Clear
7:53 PM 30.9 °F - 25.0 °F 79% 30.44 in 10.0 mi Calm Calm - N/A   Clear
8:53 PM 30.9 °F - 25.0 °F 79% 30.45 in 10.0 mi Calm Calm - N/A   Clear
9:53 PM 30.0 °F 26.5 °F 24.1 °F 79% 30.47 in 10.0 mi SSW 3.5 mph - N/A   Clear
10:53 PM 28.0 °F - 24.1 °F 85% 30.47 in 10.0 mi Calm Calm - N/A   Clear
11:53 PM 26.1 °F - 23.0 °F 88% 30.48 in 10.0 mi Calm Calm - N/A   Clear